Ketchikan, AK

8:57 AM AKDT on October 16, 2018 (GMT -0800)
Ketchikan International

Weather History for PAKT - September, 2018

Change the Weather History Date:

Sunday, September 2, 2018

  Actual Average Record
Temperature  
Mean Temperature 52 °F -  
Max Temperature 59 °F 61 °F 77 °F (1974)
Min Temperature 45 °F 49 °F 41 °F (2015)
Degree Days  
Heating Degree Days 13    
Growing Degree Days 2 (Base 50)    
Moisture  
Dew Point 51 °F    
Average Humidity 90    
Maximum Humidity 97    
Minimum Humidity 72    
Precipitation  
Precipitation 0.01 in - - ()
Sea Level Pressure  
Sea Level Pressure 29.91 in    
Wind  
Wind Speed 5 mph (SE)    
Max Wind Speed 12 mph    
Max Gust Speed -    
Visibility 9 miles    
Events Rain    
Averages and records for this station are not official NWS values.
T = Trace of Precipitation, MM = Missing Value Source: NWS Daily Summary

Daily Weather History Graph

Daily Weather History Graph

Search for Another Location

Airport or City:

Astronomy

Sep. 02, 2018 Rise Set
Actual Time 5:54 AM AKDT 7:36 PM AKDT
Civil Twilight 5:16 AM AKDT 8:15 PM AKDT
Nautical Twilight 4:28 AM AKDT 9:02 PM AKDT
Astronomical Twilight 3:32 AM AKDT 9:57 PM AKDT
Moon 10:52 PM AKDT (9/2) 2:13 PM AKDT (9/2)
Length of Visible Light 14h 59m
Length of Day
13h 42m
Waning Gibbous, 53% of the Moon is Illuminated
Sep 2
Waning Gibbous
Sep 2
Last Quarter
Sep 9
New
Sep 16
First Quarter
Sep 24
Full

Hourly Weather History & Observations

Time (AKDT) Temp. Dew Point Humidity Pressure Visibility Wind Dir Wind Speed Gust Speed Precip Events Conditions
12:10 AM 53.1 °F 51.1 °F 93% 29.83 in 10.0 mi SSE 4.6 mph - 0.00 in   Mostly Cloudy
12:30 AM 52.0 °F 50.0 °F 93% 29.83 in 10.0 mi SE 3.5 mph - 0.00 in   Scattered Clouds
12:39 AM 52.0 °F 50.0 °F 93% 29.83 in 10.0 mi SE 4.6 mph - 0.00 in   Mostly Cloudy
12:53 AM 53.1 °F 51.1 °F 93% 29.84 in 10.0 mi South 3.5 mph - 0.00 in   Overcast
1:04 AM 53.1 °F 51.1 °F 93% 29.83 in 10.0 mi South 5.8 mph - N/A   Overcast
1:19 AM 53.1 °F 51.1 °F 93% 29.84 in 10.0 mi SE 4.6 mph - N/A   Overcast
1:53 AM 53.1 °F 52.0 °F 96% 29.84 in 10.0 mi SE 5.8 mph - N/A   Overcast
2:53 AM 53.1 °F 52.0 °F 96% 29.84 in 10.0 mi South 4.6 mph - N/A   Overcast
3:07 AM 53.1 °F 52.0 °F 96% 29.84 in 10.0 mi South 3.5 mph - N/A   Overcast
3:20 AM 53.1 °F 52.0 °F 96% 29.84 in 10.0 mi SE 5.8 mph - N/A   Overcast
3:49 AM 53.6 °F 51.8 °F 94% 29.84 in 10.0 mi SE 5.8 mph - 0.00 in Rain Light Rain
3:53 AM 53.1 °F 52.0 °F 96% 29.84 in 10.0 mi SE 6.9 mph - 0.00 in   Overcast
4:53 AM 54.0 °F 51.1 °F 90% 29.83 in 8.0 mi SE 9.2 mph - 0.01 in Rain Light Rain
5:45 AM 54.0 °F 51.1 °F 90% 29.83 in 7.0 mi ESE 9.2 mph - 0.00 in   Overcast
5:53 AM 54.0 °F 51.1 °F 90% 29.83 in 9.0 mi ESE 8.1 mph - 0.00 in   Overcast
6:09 AM 53.6 °F 51.8 °F 94% 29.83 in 10.0 mi East 6.9 mph - N/A Rain Light Rain
6:53 AM 53.6 °F 51.8 °F 94% 29.85 in 10.0 mi SSE 6.9 mph - N/A   Overcast
7:51 AM 53.6 °F 51.8 °F 94% 29.86 in 10.0 mi SSE 5.8 mph - N/A   Overcast
7:53 AM 53.6 °F 51.8 °F 94% 29.86 in 10.0 mi SSE 6.9 mph - N/A   Overcast
8:53 AM 53.6 °F 51.8 °F 94% 29.88 in 6.0 mi SSE 4.6 mph - N/A Rain Light Rain
9:53 AM 55.4 °F 51.8 °F 88% 29.90 in 10.0 mi Calm Calm - N/A Rain Light Rain
10:53 AM 55.4 °F 51.8 °F 88% 29.92 in 10.0 mi Calm Calm - N/A   Overcast
11:53 AM 55.4 °F 51.8 °F 88% 29.93 in 10.0 mi NNW 10.4 mph - N/A Rain Light Rain
12:02 PM 54.0 °F 52.0 °F 93% 29.93 in 2.5 mi NNW 10.4 mph - 0.01 in Rain Light Rain
12:03 PM 54.0 °F 52.0 °F 93% 29.93 in 5.0 mi NNW 9.2 mph - 0.01 in Rain Light Rain
12:53 PM 55.4 °F 53.6 °F 94% 29.94 in 10.0 mi NW 3.5 mph - N/A   Mostly Cloudy
1:53 PM 59.0 °F 51.1 °F 75% 29.96 in 10.0 mi NNW 4.6 mph - N/A   Mostly Cloudy
2:53 PM 59.0 °F 51.1 °F 75% 29.97 in 10.0 mi NNW 10.4 mph - N/A   Mostly Cloudy
3:53 PM 57.9 °F 51.1 °F 78% 30.00 in 10.0 mi NW 8.1 mph - N/A   Mostly Cloudy
4:53 PM 57.2 °F 50.0 °F 77% 30.00 in 10.0 mi NNW 11.5 mph - N/A   Mostly Cloudy
5:53 PM 57.2 °F 48.2 °F 72% 30.01 in 10.0 mi North 9.2 mph - N/A   Mostly Cloudy
6:53 PM 55.4 °F 48.2 °F 77% 30.02 in 10.0 mi North 8.1 mph - N/A   Scattered Clouds
7:53 PM 53.6 °F 48.2 °F 82% 30.04 in 10.0 mi West 5.8 mph - N/A   Scattered Clouds
8:53 PM 51.1 °F 48.0 °F 89% 30.06 in 10.0 mi WSW 3.5 mph - N/A   Clear
9:53 PM 48.0 °F 46.0 °F 93% 30.09 in 10.0 mi Calm Calm - N/A   Clear
10:53 PM 45.0 °F 44.1 °F 97% 30.10 in 10.0 mi Calm Calm - N/A   Clear
11:53 PM 45.0 °F 44.1 °F 97% 30.12 in 10.0 mi Calm Calm - N/A   Clear